Location: Corwith Post Office
(42.9927°N, 93.9575°W)
Time: 06:10:26
(UTC+00:00)

Daily predictions for brighter satellites

Satellite Brightness Start Highest point End
(mag) Time Altitude Azimuth Time Altitude Azimuth Time Altitude Azimuth
Cosmos 1484 Rocket 3.4 12:01:18 10° N 12:04:44 34° WNW 12:08:12 10° SW
CZ-4B DEB 4.3 12:00:30 10° N 12:05:51 57° WNW 12:11:10 10° SSW
Cosmos 1741 Rocket 4.1 12:01:54 10° SSW 12:07:14 90° ENE 12:12:36 10° NNE
Cosmos 1758 4.4 23:51:05 10° SSW 23:54:57 50° W 23:58:50 10° N
